Regional Weather Roundup
Issued by NWS Portland, ME

Current Version | Previous Version | Graphics & Text | Print | Product List | Glossary On
Versions: 1 2 3 4 5 6 7 8 9 10 11 12 13 14 15 16 17 18 19 20 21 22 23 24 25 26 27 28 29 30 31 32 33 34 35 36 37 38 39 40 41 42 43 44 45 46 47 48 49 50
000
ASUS41 KGYX 211310
RWRGYX
WEATHER ROUNDUP FOR MAINE AND NEW HAMPSHIRE
NATIONAL WEATHER SERVICE GRAY ME
800 AM EST WED FEB 21 2018

MEZ002-005-006-010-012-015-018-020-021-024-026-027-029-211400-
MAINE

CITY           SKY/WX    TMP DP  RH WIND       PRES   REMARKS
PORTLAND       CLOUDY    38  38 100 CALM      30.16F FOG
SANFORD        CLOUDY    41  41 100 SW7       30.16F FOG
BAR HARBOR     FOG       39  39 100 S7        30.15F VSB 1/2
WISCASSET      FOG       37  37 100 CALM      30.16F VSB 1/4
ROCKLAND       FOG       37  37 100 S5        30.16S VSB 1/2
FRYEBURG       FOG       33  33 100 CALM      30.13F VSB<1/4
LEWISTONAUBURN LGT RAIN  35  35 100 CALM      30.14F VSB 1/4
AUGUSTA        FOG       36  35  96 S5        30.13F VSB<1/4
WATERVILLE     FOG       36  35  96 VRB5      30.08F VSB 1/4
BANGOR         FOG       37  37 100 S6        30.13F VSB 1/8
GREENVILLE       N/A     35  35 100 E5        30.03F
MILLINOCKET    CLOUDY    37  37 100 VRB5      30.08F
HOULTON        FOG       34  34 100 S10       30.05F VSB 3/4
PRESQUE ISLE   CLOUDY    32  31  96 S9        30.01F FOG
FRENCHVILLE    FOG       31  30  96 S14       29.95F VSB<1/4
CARIBOU        FOG       33  31  92 S12       29.99F VSB 1/4
$$

NHZ002-005-008-009-011-012-014-211400-
NEW HAMPSHIRE

CITY           SKY/WX    TMP DP  RH WIND       PRES   REMARKS
PORTSMOUTH     FOG       36  36  99 CALM      30.16S VSB 1/8
ROCHESTER      CLOUDY    35  35 100 CALM      30.16S
NASHUA         PTSUNNY   39  37  93 VRB3      30.20S
MANCHESTER     PTSUNNY   38  37  97 CALM      30.18S FOG
CONCORD        FOG       35  34  96 CALM      30.19S VSB 3/4
LACONIA        FOG       35  35 100 SW3       30.16F VSB 1/4
PLYMOUTH       FOG       33  33  99 CALM      30.18S VSB 1/4
BERLIN         FAIR      35  35 100 CALM      30.09S
WHITEFIELD     CLOUDY    36  34  92 CALM      30.11S
JAFFREY        FOG       51  32  48 CALM      30.21S VSB<1/4
KEENE          FOG       36  35  96 CALM      30.22S VSB 1/4
LEBANON        FOG       44  44 100 S10       30.16S VSB 1
MT WASHINGTON  FOG       43  43 100 W66G78      N/A  VSB 1/16
$$

VTZ005-007-008-211400-
VERMONT

CITY           SKY/WX    TMP DP  RH WIND       PRES   REMARKS
ST JOHNSBURY     N/A     38  38 100 MISG      30.09S
MONTPELIER     FAIR      55  50  83 S9        30.14R
BURLINGTON     PTSUNNY   61  52  72 S18G26    30.06S
$$

MAZ007-012-024-CTZ003-RIZ002-NYZ038-NYZ072-211400-
SOUTHERN NEW ENGLAND AND NY

CITY           SKY/WX    TMP DP  RH WIND       PRES   REMARKS
BOSTON         CLOUDY    58  56  93 SW22G31   30.20F
WORCESTER      CLOUDY    54  54 100 SW17      30.23S FOG
NANTUCKET      FOG       47  47 100 SW21      30.32R VSB 1/4
PROVIDENCE     CLOUDY    59  57  93 SW14      30.27S
HARTFORD       CLOUDY    57  56  96 S10       30.25S
ALBANY         CLOUDY    56  52  86 S15       30.18S
NEW YORK CITY  CLOUDY    58  53  84 S7        30.30R
$$

ANZ081-ANZ082-ANZ150-NHZ014-MEZ023>029-211400-
COASTAL MARINE OBSERVATIONS

STATION/POSITION TIME  TEMP    WIND        PRES    WAVE
                       AIR SEA DIR/SP/G            HT/PER
                 (UTC) (F)     (DEG/KT/KT) (MB)    (FT/S)
MOUNT DESERT ROC 1300   44     200/ 17/ 18 1021.3F
MATINICUS ROCK   1200   40     210/ 12/ 12 1021.2F
ISLE OF SHOALS   1200   38     250/  4/  4 1021.9F
JEFFREYS LEDGE   1236      42                N/A     4/11
GEORGES BANK BUO 1150   49 61              1027.1    8/12
$$

.............KEY..............
   WCI - WIND CHILL
   TC  - TEMPERATURE IN CELSIUS
   VSB - VISIBILITY IN MILES
   HX  - HEAT INDEX
   FAIR- INDICATES FEW OR NO CLOUDS BELOW 12,000 FT, WITH NO
         SIGNIFICANT WEATHER AND/OR OBSTRUCTIONS TO VISIBILITY.






USA.gov is the U.S. government's official web portal to all federal, state and local government web resources and services.